User: anonymous   Login
Location: Banska Bystrica
(0.0000°N, 19.1500°E)
Time: 09:45:58
(UTC+02:00)
Language:

ARIANE 5 R/B - Orbit

View from above orbital plane
View from above orbital plane
View from above satellite
View from above satellite

Ground track
Ground track

The orbit data is extracted from the following two-line orbital elements,

1 37777U 11041C   19289.70958401  .00000221  00000-0  10375-3 0  9995
2 37777   1.8527 290.0669 7164552 219.9836  54.9362  2.41641443 70641
Epoch (UTC): 16 October 2019 17:01:48
Eccentricity: 0.7164552
inclination: 1.8527°
perigee height: 273 km
apogee height: 33886 km
right ascension of ascending node: 290.0669°
argument of perigee: 219.9836°
revolutions per day: 2.41641443
mean anomaly at epoch: 54.9362°
orbit number at epoch: 7064

The dashed part of the orbit path shows where the satellite is in the earth's shadow,  

DLR